Wind_Speed
12 11 12 12 12 13 13 14 14 14 14 14 15 15 15 15 15 15 16 16 16 17 17 17 17 18 18 18 18 17 17 17 18 18 19 19 19 19 19 19 19 19 19
14 13 13 13 14 14 15 16 15 15 15 15 16 16 16 16 17 17 17 18 18 18 19 19 19 20 20 20 20 19 19 19 19 19 20 20 20 19 20 20 20 20 20
15 15 15 15 16 17 17 17 17 17 17 17 17 17 18 18 18 19 19 20 19 20 20 20 21 22 21 21 21 21 21 21 21 21 21 21 20 20 20 20 21 21 21
15 16 17 17 18 18 18 18 17 18 19 19 19 19 19 20 20 21 21 21 20 20 21 22 22 23 22 23 22 22 23 22 22 22 22 21 21 21 21 22 22 22 21
17 18 18 18 19 19 19 18 19 20 21 21 21 21 22 22 22 22 22 21 21 22 23 23 23 23 23 23 23 23 23 23 23 22 22 22 22 22 22 22 22 22 22
19 19 19 20 20 21 21 20 21 21 22 22 23 23 23 23 23 23 23 23 23 24 24 24 24 24 23 23 23 23 23 24 24 24 23 23 23 23 24 23 23 23 22
20 21 21 21 22 22 22 23 23 23 23 24 24 25 24 24 24 24 25 25 25 25 25 25 25 24 24 25 24 23 23 23 24 25 25 24 23 24 24 24 24 23 23
22 22 22 23 23 23 24 25 24 24 24 25 25 25 26 26 26 27 27 27 27 26 26 26 26 26 26 26 25 24 24 24 25 25 25 25 25 24 24 25 25 24 24
24 23 23 25 25 25 26 26 25 25 25 26 27 27 28 28 29 29 29 29 28 28 28 27 27 27 27 26 25 25 25 25 25 25 25 25 25 25 25 26 25 25 25
24 24 25 26 26 26 26 26 27 27 27 28 28 29 29 30 30 30 30 29 29 29 29 29 29 28 27 26 26 26 25 25 25 25 26 26 26 26 26 26 26 26 26
25 26 26 27 27 27 27 28 28 28 28 29 29 29 29 29 30 30 30 29 30 30 30 30 29 28 27 26 26 25 24 24 24 25 26 26 26 27 27 27 27 26 26
27 28 28 29 29 29 30 29 29 29 29 29 29 29 29 29 29 30 31 30 30 30 30 30 29 28 27 26 26 25 24 24 25 25 26 26 27 27 28 28 28 27 26
29 30 30 30 31 31 31 31 30 30 30 30 29 29 29 29 29 30 30 30 30 31 30 29 28 27 26 26 25 25 25 25 25 25 25 25 26 27 27 27 27 27 27
30 31 31 31 31 31 31 31 31 30 30 30 30 29 30 30 29 29 30 31 30 30 29 28 27 26 25 25 25 25 25 25 25 26 26 25 26 26 26 26 26 25 25
31 32 32 31 31 31 31 31 30 30 30 30 30 30 30 30 30 30 30 30 29 29 28 27 26 25 25 25 25 25 25 26 27 27 27 26 26 26 26 26 25 24 24
32 32 32 31 31 30 30 30 30 30 30 30 30 30 30 30 30 30 30 30 29 29 28 27 26 25 26 26 26 26 27 27 26 27 27 26 26 26 25 25 25 24 24
31 32 31 30 30 30 30 30 30 29 29 29 29 29 30 29 29 29 30 30 30 29 29 28 27 27 27 27 27 28 28 27 26 26 26 26 26 26 25 25 25 25 24
32 31 31 30 31 30 30 30 29 29 29 29 28 29 29 29 29 29 29 30 29 28 28 27 27 27 27 27 27 27 27 27 26 26 26 24 24 24 24 24 24 24 24
31 31 31 30 30 30 30 30 29 28 28 28 29 29 29 29 29 29 29 28 28 27 27 27 27 28 27 27 26 26 26 26 26 25 24 24 24 24 24 24 24 24 24
30 30 30 29 29 29 29 29 28 28 28 28 28 29 29 29 29 28 28 27 27 27 27 27 27 27 26 26 26 26 26 25 24 23 23 24 24 24 24 24 23 23 24
29 29 29 29 29 29 29 28 28 28 28 28 28 28 29 29 28 28 27 26 26 26 26 26 25 25 25 25 25 24 24 24 23 23 23 23 23 24 24 23 23 23 23
29 29 28 28 29 29 29 28 28 28 28 28 28 28 28 28 27 27 27 26 25 25 25 24 24 24 23 23 23 23 22 23 23 23 23 23 23 23 24 23 23 23 23
29 29 29 29 28 29 29 29 29 29 28 28 28 28 28 28 27 27 26 26 25 24 24 23 23 23 22 22 22 22 22 22 23 23 23 23 23 23 23 24 24 23 23
28 28 28 28 28 28 28 28 28 28 28 28 27 27 27 27 27 26 26 25 25 24 24 23 22 23 23 23 22 22 22 22 22 22 22 22 22 22 23 23 23 23 22
28 28 28 28 27 27 27 27 28 28 28 27 26 26 26 26 25 25 24 24 23 23 23 22 22 22 22 22 22 21 21 21 22 22 21 21 21 21 21 22 22 23 23
28 28 27 27 26 26 26 26 27 26 26 25 25 25 25 24 23 23 23 22 22 21 21 21 20 20 21 20 20 20 20 21 21 21 21 21 21 21 21 22 22 23 23
Wind_Direction
301 299 294 297 297 301 306 308 307 308 309 310 311 311 309 306 304 302 301 301 299 297 297 296 293 291 291 290 292 290 289 287 288 286 284 283 282 281 282 282 281 278 279
296 297 302 302 300 300 301 302 304 305 307 308 308 308 308 306 302 300 299 297 296 295 294 293 291 291 290 289 289 288 288 287 287 285 285 283 281 280 281 281 282 280 280
293 295 299 301 301 301 301 301 302 300 302 305 305 305 305 304 302 299 298 296 294 294 293 292 290 290 289 288 287 287 285 286 287 285 284 283 281 282 282 282 282 282 280
295 296 297 297 299 299 300 300 300 300 300 300 302 302 301 301 300 298 297 296 296 295 293 292 291 290 289 287 285 285 285 284 284 283 283 285 283 283 283 282 281 281 278
294 294 294 295 295 296 297 298 298 298 298 298 300 300 299 298 297 297 296 295 295 295 294 292 291 289 289 287 285 284 284 284 283 283 283 283 283 283 282 282 281 280 280
294 296 295 295 296 295 295 295 296 296 296 296 297 297 296 297 296 295 294 294 295 296 295 293 292 291 289 287 285 285 284 283 283 282 282 283 282 282 280 281 280 278 279
294 294 295 294 295 296 295 293 292 291 291 292 294 296 295 295 295 295 295 294 293 294 294 294 292 291 290 288 286 286 284 284 282 281 282 281 281 281 280 279 280 279 278
292 292 290 292 295 296 295 294 292 290 290 292 293 293 294 294 294 295 295 295 294 292 292 292 292 292 291 289 287 283 283 282 281 280 282 282 283 282 280 279 279 279 278
291 293 293 295 297 296 296 294 295 293 291 290 291 293 293 292 292 292 294 294 292 290 290 291 293 293 292 291 287 286 284 282 281 282 283 283 281 280 279 278 278 278 277
293 294 295 296 296 296 296 296 295 293 291 290 291 293 292 292 292 292 293 293 292 290 289 290 290 291 290 288 287 285 284 281 281 281 282 284 282 280 278 278 278 278 278
291 294 296 297 296 296 295 295 295 293 292 292 292 292 291 291 292 293 292 292 293 291 290 288 288 289 286 285 286 285 283 281 280 281 283 283 282 281 279 278 277 278 278
289 290 292 294 295 295 295 295 294 293 293 293 293 292 291 291 290 292 290 290 292 290 288 288 288 287 285 284 284 283 282 281 282 284 283 282 282 281 279 279 278 277 276
289 289 290 292 293 294 294 294 294 293 292 292 292 292 292 291 291 292 290 291 290 289 287 286 285 284 284 283 282 281 281 282 283 282 284 284 282 280 278 278 279 277 274
289 290 290 292 293 293 293 292 291 291 291 292 292 292 292 292 292 291 290 290 289 289 288 287 285 284 283 282 282 282 282 282 282 282 282 282 282 280 279 277 275 274 272
287 288 290 292 293 293 292 291 290 290 291 292 293 292 292 291 291 290 290 290 290 289 287 286 285 283 282 284 284 284 283 283 283 283 284 281 281 281 279 276 274 274 274
286 287 288 290 291 292 291 290 290 291 292 293 294 294 293 292 291 290 290 290 290 289 286 284 284 283 282 282 283 283 282 282 283 283 284 282 280 279 279 277 275 274 274
288 289 289 289 289 290 291 291 291 292 293 294 294 294 294 293 293 292 291 291 289 288 286 286 285 284 284 283 282 282 282 283 284 284 284 282 279 279 278 277 274 272 272
289 288 287 287 289 290 290 291 291 291 292 293 294 295 295 294 294 294 294 292 291 289 287 287 286 285 284 284 283 282 281 282 284 285 284 280 276 276 278 277 274 272 271
286 286 286 287 288 289 289 291 291 291 291 292 293 294 294 295 295 295 294 293 292 290 288 286 285 284 283 283 283 282 282 282 282 282 282 279 276 276 276 276 274 271 270
285 286 286 287 288 289 290 290 290 291 292 293 293 294 295 295 295 295 295 294 292 291 289 287 286 285 285 284 283 282 282 282 281 280 279 278 278 277 275 273 272 270 270
286 287 288 288 288 288 288 289 289 290 292 293 294 295 296 296 296 296 294 293 292 292 291 289 289 288 287 284 283 283 284 283 281 280 278 277 278 277 275 272 270 270 271
286 287 288 288 288 288 288 288 289 290 291 292 294 295 296 297 296 296 294 293 292 292 292 290 290 289 288 286 283 283 282 281 282 282 282 280 277 276 274 271 272 272 273
284 285 287 288 288 288 288 289 290 291 291 291 293 294 294 295 295 294 293 293 292 291 291 292 291 290 289 289 287 285 283 282 282 282 283 282 279 277 275 272 272 274 274
284 285 286 287 288 287 288 289 291 291 291 291 291 292 293 294 293 293 292 291 292 290 289 290 290 289 288 288 288 285 284 284 284 284 284 284 283 281 278 273 272 273 275
283 284 285 286 287 288 289 290 291 292 291 290 291 292 292 293 293 291 290 290 290 289 289 289 289 289 290 289 287 285 283 284 285 284 284 284 284 282 279 276 275 274 275
283 285 286 287 287 288 290 291 293 292 291 290 292 293 293 293 292 291 291 292 290 289 288 289 290 291 291 290 289 287 285 285 285 284 283 283 284 284 280 278 278 279 278
Height
5883 5882 5882 5880 5879 5879 5878 5876 5874 5872 5870 5868 5867 5865 5863 5861 5859 5857 5856 5854 5852 5851 5849 5848 5846 5845 5843 5842 5840 5839 5837 5836 5835 5834 5832 5831 5830 5828 5827 5826 5824 5824 5823
5881 5880 5878 5877 5875 5875 5873 5872 5870 5868 5866 5864 5863 5861 5859 5857 5855 5853 5851 5849 5848 5846 5845 5843 5842 5840 5838 5837 5835 5834 5832 5830 5829 5828 5827 5825 5824 5822 5821 5820 5818 5817 5816
5877 5875 5874 5873 5872 5870 5869 5867 5865 5864 5862 5860 5858 5856 5854 5852 5850 5848 5846 5844 5843 5841 5839 5838 5836 5834 5833 5831 5829 5828 5826 5825 5823 5822 5821 5819 5818 5817 5816 5814 5813 5811 5810
5872 5871 5870 5869 5867 5866 5864 5862 5861 5859 5857 5855 5853 5851 5849 5847 5845 5843 5841 5839 5837 5835 5834 5832 5830 5828 5827 5825 5823 5822 5820 5819 5817 5816 5815 5813 5812 5811 5809 5808 5807 5805 5803
5868 5867 5865 5864 5862 5860 5859 5857 5855 5854 5852 5850 5848 5846 5844 5842 5840 5838 5836 5834 5832 5830 5828 5825 5823 5822 5820 5818 5816 5815 5813 5812 5811 5809 5808 5807 5806 5805 5803 5801 5800 5799 5797
5863 5861 5860 5858 5856 5855 5853 5851 5850 5848 5846 5844 5842 5840 5838 5836 5834 5832 5830 5828 5826 5823 5821 5819 5817 5815 5813 5811 5809 5808 5807 5805 5804 5802 5801 5800 5799 5797 5796 5794 5793 5792 5791
5857 5855 5854 5852 5850 5848 5847 5845 5843 5841 5840 5838 5836 5834 5832 5830 5827 5825 5823 5821 5819 5817 5815 5812 5810 5808 5806 5804 5802 5801 5800 5798 5797 5796 5794 5793 5791 5790 5788 5787 5786 5785 5784
5851 5849 5848 5846 5844 5842 5840 5838 5835 5834 5833 5831 5829 5827 5825 5823 5820 5818 5816 5814 5812 5810 5808 5806 5803 5801 5799 5797 5795 5794 5792 5791 5789 5788 5787 5785 5784 5782 5781 5780 5779 5778 5777
5845 5844 5841 5839 5837 5835 5833 5831 5829 5827 5825 5823 5821 5819 5817 5815 5812 5810 5808 5806 5804 5802 5800 5798 5796 5793 5791 5789 5788 5786 5784 5783 5781 5780 5779 5777 5776 5774 5773 5772 5771 5770 5769
5838 5837 5835 5833 5830 5828 5826 5824 5821 5820 5818 5816 5814 5811 5809 5806 5804 5802 5799 5797 5795 5793 5791 5789 5787 5785 5783 5781 5780 5778 5777 5775 5774 5773 5771 5770 5768 5766 5765 5764 5762 5761 5760
5831 5830 5827 5825 5822 5820 5818 5816 5814 5812 5810 5807 5805 5803 5801 5798 5796 5793 5791 5788 5787 5784 5782 5780 5778 5776 5775 5773 5772 5770 5769 5767 5766 5765 5764 5762 5760 5758 5757 5755 5754 5753 5752
5823 5822 5819 5817 5814 5812 5810 5808 5806 5804 5801 5799 5797 5795 5792 5790 5787 5784 5782 5779 5777 5776 5774 5771 5770 5768 5766 5765 5763 5762 5761 5760 5758 5757 5755 5754 5752 5750 5748 5747 5746 5745 5744
5815 5813 5811 5809 5806 5804 5802 5800 5797 5795 5793 5791 5788 5786 5784 5781 5779 5776 5774 5771 5769 5767 5764 5762 5761 5759 5757 5756 5755 5754 5753 5751 5750 5748 5747 5745 5743 5741 5739 5738 5737 5736 5736
5806 5805 5802 5800 5798 5796 5793 5791 5788 5786 5784 5782 5779 5777 5775 5773 5770 5768 5765 5763 5760 5758 5756 5754 5752 5750 5749 5748 5747 5746 5744 5743 5742 5740 5738 5737 5735 5732 5731 5730 5729 5728 5728
5797 5795 5793 5791 5789 5787 5784 5782 5780 5777 5775 5773 5770 5768 5765 5763 5761 5759 5756 5753 5751 5749 5747 5745 5744 5742 5741 5740 5738 5737 5736 5734 5733 5732 5730 5728 5726 5725 5723 5722 5721 5721 5720
5788 5786 5784 5782 5780 5778 5775 5773 5770 5768 5766 5763 5761 5758 5756 5754 5751 5749 5746 5744 5742 5740 5738 5736 5735 5734 5732 5731 5730 5728 5727 5726 5724 5723 5721 5719 5718 5717 5715 5714 5713 5713 5713
5779 5777 5775 5773 5771 5769 5767 5764 5762 5760 5757 5755 5752 5749 5747 5745 5742 5740 5737 5735 5732 5730 5729 5727 5726 5724 5723 5722 5721 5720 5718 5717 5715 5714 5712 5711 5709 5708 5707 5706 5705 5704 5704
5770 5768 5766 5764 5762 5760 5757 5755 5753 5751 5749 5746 5744 5741 5738 5735 5733 5730 5728 5725 5723 5721 5719 5718 5716 5715 5714 5712 5711 5710 5709 5707 5706 5705 5703 5702 5700 5699 5698 5698 5697 5696 5696
5760 5758 5756 5754 5752 5750 5748 5746 5744 5742 5740 5737 5735 5732 5729 5726 5723 5721 5718 5716 5714 5712 5710 5708 5706 5705 5703 5702 5701 5700 5699 5698 5697 5696 5694 5693 5692 5691 5690 5689 5689 5688 5688
5751 5749 5747 5745 5743 5741 5739 5737 5735 5733 5731 5728 5726 5723 5720 5717 5715 5712 5709 5707 5705 5703 5701 5699 5697 5695 5694 5692 5691 5690 5689 5688 5688 5687 5686 5685 5684 5683 5682 5681 5681 5680 5680
5741 5740 5738 5736 5734 5732 5730 5728 5726 5724 5722 5719 5717 5714 5711 5708 5706 5703 5701 5698 5696 5694 5692 5690 5688 5686 5685 5683 5682 5681 5680 5679 5679 5678 5677 5676 5675 5675 5674 5673 5673 5673 5672
5733 5731 5729 5727 5726 5723 5721 5719 5717 5715 5713 5710 5708 5705 5702 5699 5697 5695 5692 5690 5688 5686 5683 5681 5680 5678 5677 5675 5673 5672 5671 5671 5670 5669 5669 5668 5667 5666 5666 5665 5665 5664 5664
5724 5722 5720 5719 5717 5714 5712 5710 5708 5706 5703 5701 5699 5696 5694 5691 5689 5686 5684 5682 5680 5678 5676 5674 5672 5670 5669 5667 5666 5664 5663 5663 5662 5662 5661 5660 5659 5658 5658 5657 5657 5656 5656
5714 5713 5711 5709 5707 5705 5703 5701 5699 5696 5694 5692 5690 5688 5685 5683 5681 5678 5676 5673 5671 5670 5668 5666 5664 5663 5661 5660 5658 5657 5656 5655 5654 5653 5653 5652 5651 5650 5649 5649 5649 5648 5648
5705 5704 5702 5700 5698 5696 5694 5692 5690 5687 5685 5683 5681 5679 5677 5674 5672 5670 5668 5666 5664 5662 5660 5659 5657 5656 5654 5652 5651 5650 5649 5648 5647 5646 5645 5644 5644 5643 5642 5641 5640 5640 5639
5696 5695 5693 5691 5690 5688 5686 5684 5681 5679 5676 5674 5672 5670 5668 5666 5664 5662 5660 5658 5657 5655 5653 5652 5650 5649 5647 5646 5644 5643 5641 5640 5639 5638 5638 5637 5636 5635 5634 5633 5633 5632 5631